Regional Weather Roundup
Issued by NWS Kansas City/Pleasant Hill, MO

Home | Current Version | Previous Version | Text Only | Print | Product List | Glossary On
Versions: 1 2 3 4 5 6 7 8 9 10 11 12 13 14 15 16 17 18 19 20 21 22 23 24 25 26 27
000
ASUS43 KEAX 242210
RWREAX

WEATHER ROUNDUP FOR EASTERN KANSAS AND NORTHWEST MISSOURI
NATIONAL WEATHER SERVICE KANSAS CITY/PLEASANT HILL MO
500 PM CDT SUN JUL 24 2016

KSZ040-057-103>105-MOZ028-029-037-043-242300-
...KANSAS CITY METROPOLITAN AREA...

CITY           SKY/WX    TMP DP  RH WIND       PRES   REMARKS
K.C. INTL      CLOUDY    87  77  72 N8        29.95S HX  99
K.C. DOWNTOWN  PTSUNNY   93  72  50 NW6       29.92R HX 101
LEES SUMMIT    MOSUNNY   94  75  54 N5        29.94S HX 105
OLATHE - IXD   CLOUDY    91  76  61 N12       29.94S HX 103
OLATHE - OJC   CLOUDY    94  72  48 N5        29.94S HX 102
LAWRENCE       CLOUDY    91  77  63 N14       29.94R HX 104

$$

MOZ001>008-011>017-020>025-030>033-038>040-044>046-053-054-242300-
...NORTHERN AND CENTRAL MISSOURI...

CITY           SKY/WX    TMP DP  RH WIND       PRES   REMARKS
ST. JOSEPH     PTSUNNY   88  80  77 CALM      29.95S HX 104
MOSBY          CLOUDY    90  73  58 NW7       29.93S HX  98
WHITEMAN AFB   MOSUNNY   95  76  54 NW3       29.91F HX 109
CLINTON        SUNNY     95  81  63 SW6       29.93S HX 115
SEDALIA        SUNNY     95  78  58 VRB6      29.94S HX 111
WARSAW         NOT AVBL
CHILLICOTHE      N/A     90  79  70 VRB5      29.94R HX 106
KIRKSVILLE     PTSUNNY   89  77  67 NW5       29.94R HX 101

$$

MOZ041-047>049-056>058-063>065-088>090-097-242300-
...EASTERN AND SOUTHERN MISSOURI...

CITY           SKY/WX    TMP DP  RH WIND       PRES   REMARKS
ST. LOUIS INTL MOSUNNY  100  72  40 SW5       29.90F HX 109
SPIRIT OF STL  MOSUNNY   98  73  44 SW5       29.88F HX 108
COLUMBIA       CLOUDY    95  78  58 W8        29.92F HX 111
JEFFERSON CITY CLOUDY    97  73  45 S6        29.88F HX 107
ROLLA          PTSUNNY   95  75  52 SW7       29.94S HX 107
OSAGE BEACH    SUNNY     95  77  55 SW3       29.93F HX 109
SPRINGFIELD    SUNNY     97  68  38 SW5       29.95S HX 102
BRANSON        PTSUNNY   95  72  46 CALM      29.97F HX 103
JOPLIN         SUNNY     97  74  47 VRB5      29.94S HX 108
WEST PLAINS    CLOUDY    93  73  52 VRB5      29.98F HX 102

$$

IAZ060-094-KSZ022-034>040-054-083-096-NEZ052-066-093-242300-
...KANSAS...SOUTHEAST NEBRASKA AND IOWA...

CITY           SKY/WX    TMP DP  RH WIND       PRES   REMARKS
TOPEKA         CLOUDY    91  76  61 N7        29.95S HX 103
MANHATTAN      CLOUDY    87  74  64 NE14      29.97R HX  95
EMPORIA        MOSUNNY   99  71  40 N7        29.93S HX 107
CHANUTE        SUNNY     97  73  45 SW7       29.92F HX 107
WICHITA        CLOUDY    97  69  40 SE8       29.90F HX 103
OMAHA          PTSUNNY   83  67  58 N6        30.01S
LINCOLN        CLOUDY    82  68  62 NE8       30.02F
FALLS CITY     LGT RAIN  79  69  71 N8        30.00R
LAMONI         PTSUNNY   82  73  74 N8        29.98R
DES MOINES     CLOUDY    86  65  49 N17       29.97R

$$





USA.gov is the U.S. government's official web portal to all federal, state and local government web resources and services.